Regional Weather Roundup
Issued by NWS Bismarck, ND

Home | Current Version | Previous Version | Text Only | Print | Product List | Glossary On
Versions: 1 2 3 4 5 6 7 8 9 10 11 12 13 14 15 16 17 18 19 20 21 22 23 24 25 26 27 28 29 30 31 32 33 34 35 36 37 38 39 40 41 42 43 44 45 46 47 48 49 50
000
ASUS43 KBIS 061320
RWRBIS

NWR BROADCAST TEXT
NATIONAL WEATHER SERVICE BISMARCK ND
700 AM CST FRI MAR 06 2015

NOTE: "FAIR" INDICATES FEW OR NO CLOUDS BELOW 12,000 FEET WITH NO
SIGNIFICANT WEATHER AND/OR OBSTRUCTIONS TO VISIBILITY.


CITY           SKY/WX    TMP DP  RH WIND       PRES   REMARKS
WILLISTON      PTCLDY    17  13  84 S3        30.07R
MINOT          PTCLDY    16  10  77 SW10      30.05R WCI   4
MINOT AFB      PTCLDY    14  11  91 W10       30.04R WCI   1
BISMARCK       CLEAR     13  10  88 NW3       30.09R
DICKINSON      CLEAR     20  13  74 W7        30.04R WCI  11
GARRISON         N/A     16  11  80 VRB3      30.05S
HETTINGER ARPT CLEAR     19  11  70 CALM      30.08R
JAMESTOWN      CLEAR     14   9  80 NW7       30.03R WCI   4
BEACH          CLOUDY    18  16  93 SW5       30.07S WCI  11
CARRINGTON     FAIR      14  14 100 MISG      30.05R
CROSBY         FAIR      16  14  93 S9        30.04F WCI   4
HARVEY         FAIR      10   7  85 NW10      30.05S WCI  -3
HAZEN          FAIR      12   9  85 SW7       30.09S WCI   2
LINTON         FAIR      14  14 100 W7        30.08R WCI   4
MANDAN         FAIR      19  16  86 NW9       30.08R WCI   9
OAKES            N/A     14  10  85 W6        30.06R WCI   5
RUGBY          FAIR       5   1  85 W8        30.05R WCI  -8
TIOGA          FAIR      12  12 100 SW7       30.07S WCI   2
WATFORD CITY   FAIR      12  10  92 SW3       30.05S
$$

CITY           SKY/WX    TMP DP  RH WIND       PRES   REMARKS
GRAND FORKS    CLEAR      9   4  80 W9        30.03R WCI  -4
GRAND FORKS AF CLEAR     11   6  77 NW7       30.03R WCI   1
DEVILS LAKE    PTCLDY    10   3  72 W12       30.03S WCI  -4
FARGO          CLEAR     14   8  77 NW8       30.04R WCI   3
CANDO          FAIR       7   3  85 W9        30.04R WCI  -7
CAVALIER       FAIR      12   7  79 W8        30.01R WCI   1
GWINNER        SUNNY     19  12  73 W10       30.06R WCI   8
ROLLA          FAIR      12   7  79 W8        30.01R WCI   1
WALHALLA         N/A     14   9  79 W8        30.02R WCI   3
$$

CITY           SKY/WX    TMP DP  RH WIND       PRES   REMARKS
ABERDEEN       CLEAR     13   7  77 CALM      30.07R
MOBRIDGE       CLEAR     15   9  76 CALM      30.06R
BUFFALO          N/A     26  15  63 W8        30.01R WCI  18
RAPID CITY     CLEAR     27  15  61 W6        30.12R
GLASGOW        CLOUDY    26  20  77 CALM      30.04S
SIDNEY         CLOUDY    23  19  86 CALM      30.10S
WOLF POINT     CLOUDY    26  20  77 W3        30.06F
GLENDIVE       CLOUDY    27  18  69 S5        30.08S
MILES CITY     CLOUDY    31  20  63 W8        30.09S
BAKER          CLOUDY    25  16  68 W6        30.08R WCI  18
$$

CITY           SKY/WX    TMP DP  RH WIND       PRES   REMARKS
BILLINGS       PTCLDY    33  15  47 SW17      30.15R
GREAT FALLS    CLEAR     34  18  52 SW14      30.14R
REGINA         CLOUDY    10   7  85 SE8       29.97F WCI  -1
ESTEVAN        CLOUDY    10   7  85 S6        30.03S WCI   1
$$




USA.gov is the U.S. government's official web portal to all federal, state and local government web resources and services.